Rochelle, IL

2:53 AM CDT on May 30, 2017 (GMT -0500)
Rochelle

Weather History for KRPJ - November, 2011

Change the Weather History Date:

Wednesday, November 16, 2011

  Actual Average (KRFD) Record (KRFD)
Temperature  
Mean Temperature 34 °F -  
Max Temperature 41 °F 47 °F 75 °F (1931)
Min Temperature 26 °F 28 °F 2 °F (1959)
Degree Days  
Heating Degree Days 32    
Moisture  
Dew Point 17 °F    
Average Humidity 52    
Maximum Humidity 74    
Minimum Humidity 26    
Precipitation  
Precipitation 0.00 in - - ()
Sea Level Pressure  
Sea Level Pressure 30.06 in    
Wind  
Wind Speed 13 mph (NW)    
Max Wind Speed 23 mph    
Max Gust Speed 30 mph    
Visibility 10 miles    
Events      
Averages and records for this station are not official NWS values.
T = Trace of Precipitation, MM = Missing Value Source: NWS Daily Summary

Daily Weather History Graph

Daily Weather History Graph

Search for Another Location

Airport or City:

Trip Planner

Search our weather history database for the weather conditions in past years. The results will help you decide how hot, cold, wet, or windy it might be!

Date:

Astronomy

Nov. 16, 2011 Rise Set
Actual Time 6:46 AM CST 4:34 PM CST
Civil Twilight 6:16 AM CST 5:04 PM CST
Nautical Twilight 5:43 AM CST 5:38 PM CST
Astronomical Twilight 5:10 AM CST 6:11 PM CST
Moon 9:49 PM CST (11/16) 11:22 AM CST (11/16)
Length of Visible Light 10h 47m
Length of Day
9h 47m
Waning Gibbous, 70% of the Moon is Illuminated
Nov 16
Waning Gibbous
Nov 18
Last Quarter
Nov 25
New
Dec 2
First Quarter
Dec 10
Full

Hourly Weather History & Observations

Time (CST) Temp. Windchill Dew Point Humidity Pressure Visibility Wind Dir Wind Speed Gust Speed Precip Events Conditions
12:15 AM 39.2 °F 31.2 °F 26.6 °F 61% 29.91 in 10.0 mi NW 13.8 mph 21.9 mph N/A   Clear
12:35 AM 37.4 °F 27.8 °F 23.0 °F 56% 29.92 in 10.0 mi NW 17.3 mph 24.2 mph N/A   Clear
12:55 AM 37.4 °F 28.5 °F 21.2 °F 52% 29.92 in 10.0 mi NW 15.0 mph 21.9 mph N/A   Clear
1:35 AM 35.6 °F 27.5 °F 21.2 °F 56% 29.94 in 10.0 mi NW 11.5 mph - N/A   Clear
1:55 AM 35.6 °F 29.2 °F 21.2 °F 56% 29.95 in 10.0 mi NW 8.1 mph - N/A   Clear
2:15 AM 33.8 °F 27.7 °F 21.2 °F 60% 29.94 in 10.0 mi NW 6.9 mph - N/A   Clear
2:35 AM 33.8 °F 29.6 °F 21.2 °F 60% 29.94 in 10.0 mi NW 4.6 mph - N/A   Clear
2:55 AM 32.0 °F 26.4 °F 21.2 °F 64% 29.94 in 10.0 mi WNW 5.8 mph - N/A   Clear
3:15 AM 32.0 °F 24.8 °F 23.0 °F 69% 29.96 in 10.0 mi WNW 8.1 mph - N/A   Clear
3:35 AM 32.0 °F 26.4 °F 23.0 °F 69% 29.96 in 10.0 mi WNW 5.8 mph - N/A   Clear
3:55 AM 32.0 °F 26.4 °F 21.2 °F 64% 29.96 in 10.0 mi NW 5.8 mph - N/A   Clear
4:15 AM 32.0 °F 25.6 °F 21.2 °F 64% 29.96 in 10.0 mi NW 6.9 mph - N/A   Clear
4:35 AM 32.0 °F 24.8 °F 21.2 °F 64% 29.97 in 10.0 mi WNW 8.1 mph - N/A   Clear
4:55 AM 32.0 °F 24.2 °F 21.2 °F 64% 29.99 in 10.0 mi NW 9.2 mph - N/A   Clear
5:15 AM 32.0 °F 24.8 °F 21.2 °F 64% 29.99 in 10.0 mi NW 8.1 mph - N/A   Clear
5:35 AM 32.0 °F 24.2 °F 21.2 °F 64% 29.99 in 10.0 mi NW 9.2 mph - N/A   Clear
5:55 AM 32.0 °F 22.5 °F 21.2 °F 64% 30.00 in 10.0 mi WNW 12.7 mph - N/A   Clear
6:15 AM 32.0 °F 22.1 °F 19.4 °F 60% 30.02 in 10.0 mi WNW 13.8 mph 19.6 mph N/A   Clear
6:35 AM 32.0 °F 22.5 °F 19.4 °F 60% 30.03 in 10.0 mi NW 12.7 mph 21.9 mph N/A   Clear
6:55 AM 32.0 °F 22.1 °F 19.4 °F 60% 30.05 in 10.0 mi NW 13.8 mph - N/A   Clear
7:35 AM 30.2 °F 20.8 °F 17.6 °F 60% 30.06 in 10.0 mi NW 11.5 mph - N/A   Clear
7:55 AM 30.2 °F 20.8 °F 19.4 °F 64% 30.07 in 10.0 mi NW 11.5 mph - N/A   Clear
8:15 AM 32.0 °F 22.5 °F 17.6 °F 55% 30.08 in 10.0 mi NW 12.7 mph 17.3 mph N/A   Clear
8:35 AM 32.0 °F 21.2 °F 17.6 °F 55% 30.08 in 10.0 mi NW 16.1 mph 20.7 mph N/A   Clear
8:55 AM 32.0 °F 21.2 °F 17.6 °F 55% 30.09 in 10.0 mi NW 16.1 mph 21.9 mph N/A   Clear
9:15 AM 32.0 °F 21.6 °F 17.6 °F 55% 30.09 in 10.0 mi NW 15.0 mph 20.7 mph N/A   Clear
9:35 AM 32.0 °F 21.2 °F 17.6 °F 55% 30.09 in 10.0 mi NW 16.1 mph - N/A   Clear
9:55 AM 33.8 °F 22.2 °F 17.6 °F 52% 30.09 in 10.0 mi NW 20.7 mph 28.8 mph N/A   Clear
10:15 AM 35.6 °F 24.0 °F 17.6 °F 48% 30.09 in 10.0 mi NNW 23.0 mph 28.8 mph N/A   Clear
10:35 AM 35.6 °F 24.8 °F 17.6 °F 48% 30.08 in 10.0 mi NW 19.6 mph 27.6 mph N/A   Clear
10:55 AM 35.6 °F 24.5 °F 17.6 °F 48% 30.08 in 10.0 mi NW 20.7 mph - N/A   Clear
11:15 AM 37.4 °F 26.6 °F 15.8 °F 41% 30.08 in 10.0 mi NW 21.9 mph 28.8 mph N/A   Clear
11:35 AM 37.4 °F 27.2 °F 15.8 °F 41% 30.07 in 10.0 mi NW 19.6 mph 28.8 mph N/A   Clear
11:55 AM 37.4 °F 26.9 °F 14.0 °F 38% 30.07 in 10.0 mi NW 20.7 mph 29.9 mph N/A   Clear
12:15 PM 37.4 °F 26.9 °F 14.0 °F 38% 30.07 in 10.0 mi NW 20.7 mph 27.6 mph N/A   Clear
12:35 PM 39.2 °F 29.8 °F 14.0 °F 36% 30.07 in 10.0 mi NW 18.4 mph 24.2 mph N/A   Clear
12:55 PM 39.2 °F 30.2 °F 12.2 °F 33% 30.08 in 10.0 mi NW 17.3 mph 26.5 mph N/A   Clear
1:15 PM 41.0 °F 31.6 °F 12.2 °F 31% 30.09 in 10.0 mi NW 20.7 mph 27.6 mph N/A   Clear
1:35 PM 41.0 °F 32.8 °F 10.4 °F 29% 30.09 in 10.0 mi NW 16.1 mph 24.2 mph N/A   Clear
1:55 PM 41.0 °F 32.2 °F 10.4 °F 29% 30.09 in 10.0 mi NW 18.4 mph 25.3 mph N/A   Clear
2:15 PM 39.2 °F 29.8 °F 8.6 °F 28% 30.10 in 10.0 mi NW 18.4 mph 26.5 mph N/A   Clear
2:35 PM 39.2 °F 29.6 °F 8.6 °F 28% 30.10 in 10.0 mi WNW 19.6 mph 23.0 mph N/A   Clear
2:55 PM 39.2 °F 30.5 °F 6.8 °F 26% 30.11 in 10.0 mi NW 16.1 mph 21.9 mph N/A   Clear
3:15 PM 37.4 °F 28.5 °F 6.8 °F 28% 30.12 in 10.0 mi NW 15.0 mph 23.0 mph N/A   Clear
3:35 PM 37.4 °F 28.9 °F 8.6 °F 30% 30.12 in 10.0 mi NW 13.8 mph - N/A   Clear
3:55 PM 37.4 °F 29.8 °F 8.6 °F 30% 30.13 in 10.0 mi WNW 11.5 mph - N/A   Clear
4:15 PM 35.6 °F 28.0 °F 10.4 °F 35% 30.13 in 10.0 mi NW 10.4 mph 16.1 mph N/A   Clear
4:35 PM 35.6 °F 26.6 °F 8.6 °F 33% 30.13 in 10.0 mi WNW 13.8 mph 18.4 mph N/A   Clear
5:15 PM 32.0 °F 25.6 °F 15.8 °F 51% 30.14 in 10.0 mi WNW 6.9 mph - N/A   Clear
5:35 PM 32.0 °F 25.6 °F 15.8 °F 51% 30.15 in 10.0 mi West 6.9 mph - N/A   Clear
5:55 PM 30.2 °F 25.4 °F 17.6 °F 60% 30.16 in 10.0 mi West 4.6 mph - N/A   Clear
6:15 PM 30.2 °F 25.4 °F 17.6 °F 60% 30.16 in 10.0 mi West 4.6 mph - N/A   Clear
6:35 PM 30.2 °F 23.4 °F 17.6 °F 60% 30.17 in 10.0 mi West 6.9 mph - N/A   Clear
6:55 PM 28.4 °F 21.2 °F 17.6 °F 64% 30.17 in 10.0 mi West 6.9 mph - N/A   Clear
7:15 PM 28.4 °F 22.2 °F 17.6 °F 64% 30.17 in 10.0 mi West 5.8 mph - N/A   Clear
7:35 PM 28.4 °F 22.2 °F 17.6 °F 64% 30.16 in 10.0 mi WSW 5.8 mph - N/A   Clear
8:15 PM 26.6 °F 18.2 °F 19.4 °F 74% 30.16 in 10.0 mi WSW 8.1 mph - N/A   Clear
8:55 PM 26.6 °F 17.5 °F 19.4 °F 74% 30.16 in 10.0 mi SSW 9.2 mph - N/A   Clear
9:15 PM 26.6 °F 18.2 °F 19.4 °F 74% 30.15 in 10.0 mi SSW 8.1 mph - N/A   Clear
9:35 PM 26.6 °F 18.2 °F 19.4 °F 74% 30.14 in 10.0 mi SW 8.1 mph - N/A   Clear
9:55 PM 26.6 °F 17.5 °F 19.4 °F 74% 30.14 in 10.0 mi SSW 9.2 mph - N/A   Clear
10:15 PM 26.6 °F 18.2 °F 19.4 °F 74% 30.14 in 10.0 mi SW 8.1 mph - N/A   Clear
10:35 PM 26.6 °F 17.5 °F 19.4 °F 74% 30.14 in 10.0 mi WSW 9.2 mph - N/A   Clear
10:55 PM 28.4 °F 19.1 °F 19.4 °F 69% 30.14 in 10.0 mi WSW 10.4 mph - N/A   Clear
11:15 PM 28.4 °F 18.5 °F 19.4 °F 69% 30.14 in 10.0 mi WSW 11.5 mph - N/A   Clear
11:35 PM 28.4 °F 19.7 °F 19.4 °F 69% 30.14 in 10.0 mi WSW 9.2 mph - N/A   Clear